GPS BIIF-3

Last updated on Sun Dec 14 2025 00:02:35 GMT+0000 (Coordinated Universal Time)

1 38833U 12053A 25346.85117339 .00000091 00000+0 00000+0 0 9991 2 38833 53.5578 151.2340 0175867 63.9869 297.8174 2.00565025 95705
UTC large
Height (km)
Speed (km/s)
/
Latitude / Longitude
Inclination (degrees)
Orbital Period (minutes)
Azimuth
Elevation
Range (km)
Doppler Factor

Next 0 passes for location: London (51.5072 / 0.1276)

Sorry there are no passes over London.